GPM-CORE

Last updated on Wed Sep 17 2025 00:02:30 GMT+0000 (Coordinated Universal Time)

1 39574U 14009C 25259.35608376 .00015687 00000+0 33683-3 0 9995 2 39574 64.9762 145.3773 0006418 264.8569 95.1839 15.44857710655512
UTC large
Height (km)
Speed (km/s)
/
Latitude / Longitude
Inclination (degrees)
Orbital Period (minutes)
Azimuth
Elevation
Range (km)
Doppler Factor

Next 0 passes for location: London (51.5072 / 0.1276)

Sorry there are no passes over London.